DELTA 1 DEB, 2700

Orbit data source: Space-Track

DELTA 1 DEB, 2700 is space debris in LEO originally from a launch on Sat, 06 Nov 1965 UTC launched from the Air Force Eastern Test Range (AFETR). Debris objects in space refer to the collection of defunct objects orbiting the Earth. Examples of debris include non-operational satellites, rocket bodies, and fragments generated from explosions, collisions, or faulty payload assembly.

Loading next visibility...
DELTA 1 DEB details
Identifier
2700, 1965-089C
Orbit
LEO
Last TLE update1 day ago
Origin
Flag of USGSFC (US)
ManufacturerUnknown
MissionSpacecraft
Bus & MotorUnknown
MassUnknown
Launch date (UTC)
1965-11-06 (59 years ago)
Launch vehicleUnknown
Launch site
Air Force Eastern Test Range (AFETR)
Object type
Payload
Rocket body
Debris
Shape & HBRUnknown
Radar Cross SectionSmall (<0.1 m²)

Expand to show TLE details & history

TLE from 1 day ago
0 DELTA 1 DEB
1 02700U 65089C   24355.30396862 -.00000295  00000-0 -10851-2 0  9998
2 02700  59.5955  98.7370 0723280  94.1708 304.7988 12.08958003645699
Epoch: 2024-12-20T07:17Z
Definitive object data (Epoch: 2024-12-20T07:17:42.888Z)
Latitude27.10369°
Longitude-82.67616°
Altitude1,341.827 km
Speed7.323 km/s
True Right ascension07h 44m 29s
True Declination26° 58' 30"
Sunlit
Object was in full shadow at TLE epoch
Visualization TLE readout
Latitude-14.56281°
Longitude-111.60096°
Altitude1,822.884 km
Speed6.895 km/s
Apparent Right ascension03h 42m 27s
Apparent Declination-33° 12' 33"
Sunlit
Object is in full shadow
Visualization observer readout
Local Sidereal Time11:50:08
Azimuth259.141° W
Elevation-43.688°
Doppler factor1
Orbital elements
Apogee altitude2,220.327 km
Perigee altitude1,060.403 km
Semi-major axis8,018.502 km
Eccentricity0.072328
Inclination59.5955°
RAAN98.737°
Arg. of periapsis94.1708°
True anomaly297.64223°
Mean anomaly304.7988°
Eccentric anomaly301.2562°
Mean motion3.02276 °/min
BSTAR-0.0010851
Orbital period119.1 mins
Loading maneuver chart data...
Loading historical data...
Loading historical data...
Loading historical data...
Loading historical data...
Loading historical data...
Loading historical data...
Loading historical data...

DELTA 1 DEB Visibility forecast

Observer location: undefined°, undefined

Span
Click to sort rows by Start time (UTC) header in descending order
Start Az.
Max El. time (UTC)
Max El. Az.
Max El.
End time (UTC)
End Az.
6 mins2024-12-21 13:18:16.463Z332.513° NNW2024-12-21 13:21:16.463Z0.608° NNE13.597°2024-12-21 13:24:16.463Z28.505° NE
10 mins2024-12-21 15:23:16.463Z342.604° N2024-12-21 15:27:16.463Z26.899° NE23.741°2024-12-21 15:33:16.463Z85.922° E
13 mins2024-12-21 17:26:16.463Z317.599° NNW2024-12-21 17:32:16.463Z188.031° SSW44.267°2024-12-21 17:39:16.463Z147.256° SSE
5 mins2024-12-21 19:33:16.463Z259.458° W2024-12-21 19:34:16.463Z250.805° W13.432°2024-12-21 19:38:16.463Z219.748° SW
7 mins2024-12-22 06:53:16.463Z139.486° SSE2024-12-22 06:56:16.463Z117.066° SE14.945°2024-12-22 07:00:16.463Z84.04° E
14 mins2024-12-22 08:52:16.463Z213.322° SW2024-12-22 08:59:16.463Z175.563° S44.445°2024-12-22 09:06:16.463Z41.609° NE
10 mins2024-12-22 10:59:16.463Z280.17° WNW2024-12-22 11:04:16.463Z332.087° NNW24.15°2024-12-22 11:09:16.463Z23.28° NE
|